[[{"header":{"parameterUnit":"m.s-1","parameterCategory":1,"la1":30.2991,"la2":30.254,"lo1":-89.0895,"lo2":-89.0444,"dy":0.0017,"dx":0.0017,"nx":28,"ny":28,"refTime":"2023-07-30T21:00:00:Z","depth":0,"parameterNumber":2,"parameterNumberName":"U-component_of_WINDS"},"data":[0,0,0,0,0,0,0,0,0,0,0,0,0,0,0,0,0,0,0,0,0,0,0,0,0,0,0,0,0,0,0,0,0,0,0,0,0,0,0,0,0,0,0,0,0,0,0,0,0,0,0,0,0,0,0,0,0,0,1.8481,1.8481,0,1.8492,1.8492,1.8492,1.8465,1.8464,1.8463,1.8463,1.8475,1.8476,1.8478,0,0,0,0,0,0,0,0,0,0,0,0,0,1.8439,1.844,1.8481,1.8481,1.8481,1.8492,1.8492,1.8492,1.8465,1.8464,1.8463,1.8462,1.8475,1.8476,1.8478,0,0,0,0,0,0,0,0,0,0,0,0,0,1.8454,1.844,1.8481,1.8469,1.8468,1.8492,1.8492,1.8492,1.8465,1.8464,1.8463,1.8462,1.8475,1.8476,1.8478,1.8514,0,0,1.8483,1.8484,0,0,0,0,0,0,0,0,1.8454,1.8456,1.8471,1.847,1.8469,1.8476,1.8482,1.8499,1.8466,1.8466,1.8463,1.8461,1.8477,1.8478,1.8483,1.8514,1.8515,1.8483,1.8484,1.8485,1.8485,0,0,0,0,0,0,0,1.8453,1.8455,1.8485,1.8471,1.847,1.8464,1.8465,1.8485,1.8479,1.8466,1.8464,1.8466,1.8476,1.8481,1.8483,1.8515,1.8483,1.8485,1.8486,1.8486,1.8578,1.858,0,0,0,0,0,0,1.8453,1.8455,1.8485,1.8485,1.8458,1.8466,1.8466,1.8475,1.8478,1.8478,1.8467,1.8465,1.8479,1.8481,1.8483,1.8527,1.8485,1.8487,1.8487,1.8577,1.8579,1.858,0,0,0,0,0,0,1.8452,1.8456,1.8484,1.8469,1.8473,1.8468,1.8477,1.8476,1.8481,1.8479,1.8478,1.8474,1.8478,1.8481,1.8507,1.8527,1.8487,1.8489,1.8575,1.8578,1.858,1.8613,0,0,0,0,0,0,1.8451,1.8455,1.8468,1.847,1.8474,1.8507,1.8478,1.8477,1.8484,1.8481,1.8485,1.8484,1.8477,1.8504,1.8508,1.8528,1.849,1.8574,1.8576,1.8579,1.861,1.8616,1.8621,0,0,0,0,0,1.8449,1.8477,1.8469,1.8473,1.849,1.8508,1.851,1.8501,1.8486,1.8499,1.8498,1.8484,1.8524,1.8507,1.8512,1.8532,1.8572,1.8576,1.8579,1.8608,1.8615,1.8621,0,0,0,0,0,0,1.8479,1.8477,1.8468,1.8497,1.8503,1.8503,1.852,1.8509,1.8519,1.8516,1.8505,1.8506,1.8535,1.8536,1.8517,1.8568,1.8546,1.855,1.8566,1.8573,1.8579,1.8578,1.8492,0,0,0,0,0,1.8488,1.8503,1.8501,1.8527,1.8531,1.8525,1.8533,1.8525,1.8531,1.8533,1.8534,1.854,1.8554,1.8564,1.8576,1.861,1.8612,1.8627,1.8633,1.8637,1.8641,1.8661,1.8668,1.8591,1.8591,1.8591,0,0,1.8509,1.851,1.852,1.8533,1.8537,1.8553,1.8527,1.8545,1.8557,1.8536,1.856,1.8561,1.8568,1.8598,1.8612,1.86,1.8663,1.8641,1.8645,1.8646,1.8665,1.8672,1.8679,1.8593,1.8593,1.8592,0,0,1.8555,1.8556,1.8579,1.8583,1.8589,1.8585,1.8591,1.8593,1.8593,1.8617,1.8602,1.8617,1.8641,1.8646,1.8652,1.8702,1.869,1.8706,1.8735,1.8755,1.8761,1.8766,1.8785,1.8792,1.871,1.871,1.871,0,1.8579,1.8602,1.8592,1.8611,1.8618,1.86,1.8623,1.8628,1.8638,1.8643,1.863,1.8661,1.8664,1.8696,1.8709,1.8714,1.8721,1.8706,1.8761,1.8766,1.8771,1.8789,1.8795,1.8712,1.8712,1.8712,1.8712,0,1.8634,1.865,1.8668,1.8677,1.8686,1.8707,1.8701,1.8712,1.8704,1.8702,1.8728,1.8731,1.8745,1.8752,1.8744,1.8784,1.8776,1.8762,1.8739,1.878,1.8797,1.8803,1.8715,1.8714,1.8714,1.8713,0,0,1.8697,1.8702,1.8709,1.8714,1.8719,1.8732,1.8753,1.8766,1.8776,1.8783,1.8802,1.8823,1.881,1.8817,1.881,1.8827,1.8868,1.8811,1.8811,1.8822,1.8913,1.8924,1.8932,1.886,1.8861,1.8862,1.8912,0,1.8744,1.8779,1.8771,1.8807,1.8822,1.8806,1.8824,1.883,1.8829,1.8843,1.8842,1.8858,1.8839,1.8844,1.8859,1.8859,1.8886,1.8856,1.8878,1.8879,1.8877,1.894,1.8952,1.8999,1.8919,1.892,1.892,0,1.8802,1.8812,1.8849,1.8853,1.8859,1.8876,1.8888,1.8901,1.8908,1.8906,1.8915,1.8905,1.8927,1.8904,1.8935,1.8914,1.8923,1.8925,1.8926,1.8929,1.8902,1.8945,1.9014,1.9021,1.893,1.893,1.8929,0,1.8846,1.8869,1.8894,1.8899,1.8904,1.8916,1.8919,1.8925,1.8934,1.8945,1.895,1.8964,1.8971,1.8982,1.8977,1.896,1.901,1.8985,1.901,1.901,1.9021,1.9021,1.9093,1.9026,1.9025,1.9025,1.9025,0,1.8899,1.8923,1.8915,1.893,1.8957,1.8948,1.8975,1.8976,1.8981,1.8997,1.8984,1.9,1.8991,1.9007,1.9003,1.903,1.9033,1.9033,1.9032,1.9035,1.9035,1.9041,1.9038,1.9027,1.9027,1.9026,1.9026,0,1.8953,1.8948,1.8975,1.8978,1.898,1.8999,1.9002,1.9017,1.9016,1.9037,1.9041,1.9039,1.9057,1.9052,1.9072,1.9069,1.9103,1.9098,1.9101,1.91,1.9125,1.9123,1.9204,1.9215,1.914,1.914,1.9141,0,1.8987,1.9005,1.901,1.902,1.9024,1.904,1.9049,1.9041,1.9052,1.9061,1.9076,1.9092,1.9105,1.9135,1.9135,1.915,1.9145,1.9173,1.9148,1.915,1.9147,1.9147,1.9149,1.9178,1.9179,1.918,1.918,0,1.9049,1.9046,1.906,1.9073,1.9084,1.9094,1.9103,1.9112,1.9105,1.9117,1.9135,1.9145,1.9166,1.9183,1.9197,1.92,1.919,1.9188,1.9195,1.9198,1.92,1.9201,1.9116,1.9187,1.9186,1.9185,1.9185,1.9185,1.9095,1.9111,1.9117,1.9133,1.9139,1.9148,1.9163,1.9163,1.9178,1.9193,1.9188,1.9209,1.9216,1.9234,1.924,1.9257,1.9246,1.9256,1.9258,1.9261,1.9265,1.9197,1.9259,1.9259,1.9259,1.9259,1.9258,0,1.9157,1.9161,1.9175,1.9188,1.9201,1.9189,1.9199,1.9211,1.9229,1.9237,1.925,1.9271,1.9288,1.929,1.9306,1.932,1.9315,1.9324,1.9323,1.9325,1.9272,1.9265,1.9327,1.9327,1.9327,1.9327,1.9327,1.9327,1.9191,1.9217,1.9216,1.9245,1.9248,1.9269,1.9275,1.9284,1.929,1.9314,1.9328,1.9329,1.9335,1.9352,1.9367,1.9367,1.9375,1.9386,1.9384,1.9335,1.9328,1.9322,1.9315,1.9387,1.9387,1.9436,1.9436,1.9436]},{"header":{"parameterUnit":"m.s-1","parameterCategory":1,"la1":30.2991,"la2":30.254,"lo1":-89.0895,"lo2":-89.0444,"dy":0.0017,"dx":0.0017,"nx":28,"ny":28,"refTime":"2023-07-30T21:00:00:Z","depth":0,"parameterNumber":3,"parameterNumberName":"V-component_of_WINDS"},"data":[0,0,0,0,0,0,0,0,0,0,0,0,0,0,0,0,0,0,0,0,0,0,0,0,0,0,0,0,0,0,0,0,0,0,0,0,0,0,0,0,0,0,0,0,0,0,0,0,0,0,0,0,0,0,0,0,0,0,-1.252,-1.252,0,-1.2481,-1.2481,-1.248,-1.2452,-1.2452,-1.2452,-1.2451,-1.241,-1.2409,-1.2408,0,0,0,0,0,0,0,0,0,0,0,0,0,-1.2571,-1.2571,-1.252,-1.252,-1.2519,-1.2481,-1.2481,-1.248,-1.2452,-1.2452,-1.2452,-1.2451,-1.241,-1.2409,-1.2408,0,0,0,0,0,0,0,0,0,0,0,0,0,-1.2542,-1.257,-1.252,-1.2501,-1.2499,-1.2481,-1.2481,-1.248,-1.2452,-1.2452,-1.2452,-1.2451,-1.2411,-1.241,-1.2408,-1.2407,0,0,-1.2404,-1.2404,0,0,0,0,0,0,0,0,-1.2544,-1.254,-1.2504,-1.2502,-1.25,-1.2471,-1.2483,-1.2455,-1.2452,-1.247,-1.2451,-1.2451,-1.2431,-1.2428,-1.2421,-1.2405,-1.2403,-1.2404,-1.2403,-1.2403,-1.2402,0,0,0,0,0,0,0,-1.2546,-1.2542,-1.2505,-1.2504,-1.2501,-1.2494,-1.249,-1.2478,-1.2453,-1.2468,-1.2466,-1.2462,-1.2429,-1.2422,-1.242,-1.2402,-1.2404,-1.2403,-1.2402,-1.2402,-1.2386,-1.2386,0,0,0,0,0,0,-1.2551,-1.2544,-1.2506,-1.2503,-1.2521,-1.2494,-1.2488,-1.2481,-1.2453,-1.2448,-1.2462,-1.2461,-1.2425,-1.2421,-1.2418,-1.2416,-1.2403,-1.2401,-1.2401,-1.2385,-1.2386,-1.2386,0,0,0,0,0,0,-1.2552,-1.2548,-1.2507,-1.2523,-1.2517,-1.2493,-1.2484,-1.248,-1.2473,-1.2448,-1.2443,-1.246,-1.2424,-1.242,-1.2411,-1.2414,-1.2401,-1.24,-1.2385,-1.2386,-1.2386,-1.2412,0,0,0,0,0,0,-1.2554,-1.2549,-1.2547,-1.2523,-1.2517,-1.25,-1.2485,-1.2479,-1.2471,-1.2469,-1.2445,-1.244,-1.2424,-1.2413,-1.2409,-1.2412,-1.2399,-1.2384,-1.2385,-1.2386,-1.241,-1.2413,-1.2415,0,0,0,0,0,-1.2556,-1.2555,-1.2548,-1.2543,-1.2515,-1.25,-1.2497,-1.2478,-1.2471,-1.247,-1.2455,-1.2441,-1.2415,-1.2412,-1.2408,-1.2411,-1.2384,-1.2385,-1.2386,-1.2409,-1.2412,-1.2415,0,0,0,0,0,0,-1.2579,-1.2552,-1.2543,-1.2534,-1.252,-1.2496,-1.2493,-1.2482,-1.2469,-1.2467,-1.2444,-1.2439,-1.2432,-1.242,-1.2418,-1.2409,-1.2398,-1.2398,-1.2417,-1.242,-1.2422,-1.2425,-1.2397,0,0,0,0,0,-1.2584,-1.2574,-1.2551,-1.2546,-1.2539,-1.2518,-1.2511,-1.2498,-1.2482,-1.2476,-1.2459,-1.2444,-1.2433,-1.2426,-1.2414,-1.2409,-1.2404,-1.2409,-1.2411,-1.2413,-1.2414,-1.2412,-1.2415,-1.2389,-1.2389,-1.2389,0,0,-1.2592,-1.2576,-1.2571,-1.255,-1.2537,-1.2529,-1.2513,-1.2504,-1.2497,-1.2474,-1.2465,-1.2452,-1.2434,-1.2428,-1.2424,-1.2417,-1.242,-1.2415,-1.2416,-1.2416,-1.2414,-1.2416,-1.2418,-1.239,-1.239,-1.2389,0,0,-1.2604,-1.259,-1.2585,-1.2574,-1.2556,-1.2542,-1.2541,-1.2519,-1.251,-1.25,-1.2484,-1.2476,-1.2456,-1.2445,-1.2436,-1.2447,-1.2434,-1.2443,-1.2456,-1.2455,-1.2457,-1.2459,-1.2464,-1.2466,-1.2444,-1.2444,-1.2444,0,-1.2616,-1.2603,-1.2584,-1.2577,-1.2569,-1.2549,-1.2545,-1.2534,-1.2513,-1.2508,-1.2501,-1.2478,-1.2464,-1.2456,-1.2459,-1.2452,-1.2451,-1.2446,-1.2459,-1.246,-1.2461,-1.2466,-1.2468,-1.2445,-1.2445,-1.2445,-1.2445,0,-1.262,-1.2611,-1.2609,-1.2591,-1.2583,-1.2577,-1.2558,-1.2552,-1.2541,-1.2528,-1.252,-1.2503,-1.2488,-1.2485,-1.2473,-1.2476,-1.2473,-1.2463,-1.2451,-1.2466,-1.247,-1.2471,-1.2447,-1.2447,-1.2446,-1.2446,0,0,-1.2643,-1.2616,-1.2616,-1.2609,-1.2588,-1.2581,-1.2576,-1.2562,-1.2558,-1.2545,-1.254,-1.2525,-1.2517,-1.2507,-1.2494,-1.2493,-1.2505,-1.2484,-1.2483,-1.2489,-1.2509,-1.2517,-1.2519,-1.2497,-1.2497,-1.2497,-1.2511,0,-1.2652,-1.264,-1.2625,-1.2619,-1.2612,-1.2594,-1.259,-1.2577,-1.2566,-1.2558,-1.2545,-1.2536,-1.2525,-1.2519,-1.2518,-1.2504,-1.2509,-1.2503,-1.2493,-1.2493,-1.2498,-1.2521,-1.2529,-1.2542,-1.2512,-1.2512,-1.2512,0,-1.2659,-1.2649,-1.2643,-1.2626,-1.2622,-1.2618,-1.2606,-1.2599,-1.2585,-1.2577,-1.2568,-1.2555,-1.2549,-1.2539,-1.2531,-1.2528,-1.2523,-1.2516,-1.2516,-1.2515,-1.2504,-1.2521,-1.2545,-1.2548,-1.2514,-1.2514,-1.2514,0,-1.2679,-1.2663,-1.2657,-1.2651,-1.2631,-1.2629,-1.262,-1.2606,-1.26,-1.259,-1.2586,-1.2575,-1.2569,-1.2561,-1.2545,-1.2539,-1.254,-1.2528,-1.2534,-1.2534,-1.2534,-1.2535,-1.256,-1.2531,-1.2531,-1.2531,-1.2531,0,-1.269,-1.2687,-1.2666,-1.2663,-1.266,-1.2643,-1.2641,-1.263,-1.2619,-1.2614,-1.2598,-1.2594,-1.2574,-1.2568,-1.2555,-1.2552,-1.2549,-1.2543,-1.254,-1.2545,-1.2546,-1.2541,-1.254,-1.2531,-1.2531,-1.2531,-1.2531,0,-1.271,-1.2695,-1.2689,-1.2672,-1.2667,-1.2666,-1.2651,-1.2648,-1.2637,-1.2631,-1.2629,-1.2611,-1.2603,-1.2588,-1.2575,-1.2567,-1.2567,-1.2561,-1.2572,-1.257,-1.2577,-1.2577,-1.2601,-1.2603,-1.2572,-1.2572,-1.2573,0,-1.2718,-1.2716,-1.2699,-1.2695,-1.2688,-1.2681,-1.2676,-1.266,-1.2655,-1.2641,-1.264,-1.2631,-1.2623,-1.2612,-1.2598,-1.2589,-1.2583,-1.2592,-1.2582,-1.2588,-1.2585,-1.2585,-1.2586,-1.2595,-1.2595,-1.2595,-1.2596,0,-1.2735,-1.2729,-1.2721,-1.2713,-1.2707,-1.2699,-1.269,-1.2688,-1.267,-1.2665,-1.2658,-1.2652,-1.2641,-1.2633,-1.2622,-1.2614,-1.2602,-1.2599,-1.26,-1.2605,-1.2612,-1.261,-1.2579,-1.2599,-1.2598,-1.2598,-1.2598,-1.2598,-1.2749,-1.2748,-1.2736,-1.273,-1.2722,-1.2715,-1.2712,-1.2701,-1.2695,-1.2685,-1.2676,-1.267,-1.2659,-1.2644,-1.2637,-1.2633,-1.2627,-1.2628,-1.2628,-1.2629,-1.2632,-1.2613,-1.263,-1.263,-1.263,-1.263,-1.263,0,-1.2766,-1.2759,-1.2753,-1.2742,-1.2738,-1.2728,-1.2719,-1.2716,-1.2711,-1.2702,-1.2695,-1.2688,-1.2681,-1.2668,-1.266,-1.266,-1.2654,-1.2658,-1.2658,-1.2657,-1.2637,-1.2637,-1.2663,-1.2663,-1.2663,-1.2663,-1.2663,-1.2663,-1.2774,-1.2771,-1.2765,-1.2759,-1.2751,-1.2746,-1.2742,-1.2736,-1.2729,-1.2722,-1.2717,-1.2709,-1.2699,-1.269,-1.2684,-1.2681,-1.2679,-1.2685,-1.268,-1.2661,-1.2658,-1.2655,-1.2655,-1.2684,-1.2684,-1.27,-1.27,-1.27]}]]